EW3309 Weather Reports


Display with metric or nautical units.
time (UTC)temp
F
wind
direction
speed
MPH
gust
MPH
rain 1hr
in
rain 24hr
in
rain mn
in
humidity
%
barometer
mb
20260831210001 88 298 0.0 0.0 0.00 0.00 0.00 46 1011.4
20260831204600 87 313 0.0 0.0 0.00 0.00 0.00 46 1011.4
20260831203059 88 301 0.0 0.0 0.00 0.00 0.00 47 1011.6
20260831201604 89 288 0.0 0.0 0.00 0.00 0.00 46 1011.7
20260831200059 89 219 0.0 0.0 0.00 0.00 0.00 45 1011.6
20260831194639 89 233 0.0 0.0 0.00 0.00 0.00 46 1011.7
20260831193058 89 279 0.0 0.0 0.00 0.00 0.00 46 1011.7
20260831191556 89 291 0.0 0.0 0.00 0.00 0.00 45 1011.8
20260831184557 88 303 0.0 0.0 0.00 0.00 0.00 46 1011.9
20260831183046 88 232 0.0 0.0 0.00 0.00 0.00 47 1012.0
20260831181547 86 291 0.0 0.0 0.00 0.00 0.00 50 1012.0
20260831180037 83 259 0.0 0.0 0.00 0.00 0.00 55 1011.9
20260831174538 81 220 0.0 0.0 0.00 0.00 0.00 61 1011.9
20260831173028 79 258 0.0 0.0 0.00 0.00 0.00 66 1011.9
20260831171531 77 229 0.0 0.0 0.00 0.00 0.00 70 1011.9
20260831170021 75 217 0.0 0.0 0.00 0.00 0.00 74 1011.9
20260831164515 74 204 0.0 0.0 0.00 0.00 0.00 77 1012.0
20260831163012 73 205 0.0 0.0 0.00 0.00 0.00 80 1011.9
20260831161510 72 224 0.0 0.0 0.00 0.00 0.00 82 1011.9
20260831160007 71 219 0.0 0.0 0.00 0.00 0.00 84 1011.9
20260831154506 71 200 0.0 0.0 0.00 0.00 0.00 85 1012.0
20260831153006 70 203 0.0 0.0 0.00 0.00 0.00 86 1011.9
20260831151501 70 207 0.0 0.0 0.00 0.00 0.00 86 1011.8
20260831150059 70 262 0.0 0.0 0.00 0.00 0.00 86 1011.8
20260831144640 69 263 0.0 0.0 0.00 0.00 0.00 85 1011.7
20260831143100 69 263 0.0 0.0 0.00 0.00 0.00 84 1011.7
20260831141553 70 262 0.0 0.0 0.00 0.00 0.00 84 1011.5
20260831140051 70 262 0.0 0.0 0.00 0.00 0.00 84 1011.3
20260831134549 70 288 0.0 0.0 0.00 0.00 0.00 84 1011.0
20260831133050 70 288 0.0 0.0 0.00 0.00 0.00 84 1010.8
20260831131545 70 288 0.0 0.0 0.00 0.00 0.00 84 1010.7
20260831130045 71 288 0.0 0.0 0.00 0.00 0.00 84 1010.7
20260831124552 71 286 0.0 0.0 0.00 0.00 0.00 84 1010.7
20260831123047 71 286 0.0 0.0 0.00 0.00 0.00 84 1010.7
20260831121547 71 288 0.0 0.0 0.00 0.00 0.00 84 1010.6
20260831120044 71 283 0.0 0.0 0.00 0.00 0.00 84 1010.5
20260831114551 71 282 0.0 0.0 0.00 0.00 0.00 84 1010.7
20260831113042 71 288 0.0 0.0 0.00 0.00 0.00 84 1010.6
20260831111544 71 288 0.0 0.0 0.00 0.00 0.00 85 1010.6
20260831104544 71 311 0.0 0.0 0.00 0.00 0.00 86 1010.7
20260831103038 71 317 0.0 0.0 0.00 0.00 0.00 86 1010.8
20260831101537 71 321 0.0 0.0 0.00 0.00 0.00 87 1010.7
20260831100054 71 321 0.0 0.0 0.00 0.00 0.00 87 1010.7
20260831094534 71 321 0.0 0.0 0.00 0.00 0.00 87 1010.8
20260831093039 71 321 0.0 0.0 0.00 0.00 0.00 88 1010.7
20260831091531 70 321 0.0 0.0 0.00 0.00 0.00 88 1010.8
20260831090029 70 321 0.0 0.0 0.00 0.00 0.00 88 1010.8
20260831084526 70 321 0.0 0.0 0.00 0.00 0.00 87 1011.0
20260831083025 69 321 0.0 0.0 0.00 0.00 0.00 87 1011.0
20260831081524 69 321 0.0 0.0 0.00 0.00 0.00 87 1010.9
20260831080026 69 321 0.0 0.0 0.00 0.00 0.00 87 1011.0
20260831074522 69 321 0.0 0.0 0.00 0.00 0.00 86 1011.0
20260831073033 69 321 0.0 0.0 0.00 0.00 0.00 85 1011.0
20260831071519 69 321 0.0 0.0 0.00 0.00 0.00 85 1011.1
20260831070016 70 321 0.0 0.0 0.00 0.00 0.00 85 1011.0
20260831064519 70 321 0.0 0.0 0.00 0.00 0.00 85 1011.1
20260831063021 70 321 0.0 0.0 0.00 0.00 0.00 85 1011.0
20260831061512 71 321 0.0 0.0 0.00 0.00 0.00 85 1010.9
20260831060012 71 321 0.0 0.0 0.00 0.00 0.00 84 1011.1
20260831054510 71 321 0.0 0.0 0.00 0.00 0.00 84 1010.9
20260831053010 71 321 0.0 0.0 0.00 0.00 0.00 84 1010.8
20260831051509 72 321 0.0 0.0 0.00 0.00 0.00 84 1010.7
20260831050009 72 324 0.0 0.0 0.00 0.00 0.00 83 1010.8
20260831044509 73 323 0.0 0.0 0.00 0.00 0.00 83 1010.7
20260831043007 73 304 0.0 0.0 0.00 0.00 0.00 81 1010.6
20260831041507 74 299 0.0 0.0 0.00 0.00 0.00 80 1010.4
20260831040010 74 279 0.0 0.0 0.00 0.00 0.00 78 1010.3
20260831034506 75 286 0.0 0.0 0.00 0.00 0.00 77 1010.1
20260831033006 76 286 0.0 0.0 0.00 0.00 0.00 75 1009.8
20260831031505 76 278 0.0 0.0 0.00 0.00 0.00 73 1009.6
20260831030005 77 276 0.0 0.0 0.00 0.00 0.00 70 1009.4
20260831024506 78 256 0.0 0.0 0.00 0.00 0.00 68 1009.4
20260831023004 80 227 0.0 0.0 0.00 0.00 0.00 65 1009.4
20260831021503 81 238 0.0 0.0 0.00 0.00 0.00 62 1009.2
20260831020004 83 210 0.0 0.0 0.00 0.00 0.00 60 1009.1
20260831014505 84 207 0.0 0.0 0.00 0.00 0.00 57 1009.1
20260831013002 85 250 0.0 0.0 0.00 0.00 0.00 54 1009.1
20260831011506 86 214 0.0 0.0 0.00 0.00 0.00 51 1009.1
20260831010001 87 225 0.0 0.0 0.00 0.00 0.00 50 1009.0
20260831004606 88 211 0.0 0.0 0.00 0.00 0.00 49 1008.9
20260831004501 88 207 0.0 0.0 0.00 0.00 0.00 49 1008.9
20260831003109 88 229 0.0 0.0 0.00 0.00 0.00 49 1009.1
20260831001600 88 270 0.0 0.0 0.00 0.00 0.00 50 1009.0
20260831000058 89 200 0.0 0.0 0.00 0.00 0.00 49 1008.9
20260830234605 90 227 0.0 0.0 0.00 0.00 0.00 48 1008.9
20260830233052 91 244 0.0 0.0 0.00 0.00 0.00 46 1008.9
20260830231600 92 264 0.0 0.0 0.00 0.00 0.00 43 1009.0
20260830230051 92 202 0.0 0.0 0.00 0.00 0.00 41 1009.0
20260830224600 93 180 0.0 0.0 0.00 0.00 0.00 38 1009.1
20260830223048 93 217 0.0 0.0 0.00 0.00 0.00 35 1009.2
20260830221542 93 248 0.0 0.0 0.00 0.00 0.00 35 1009.4
20260830220041 93 213 0.0 0.0 0.00 0.00 0.00 33 1009.6
20260830214542 93 225 0.0 0.0 0.00 0.00 0.00 32 1009.6
20260830213038 93 237 0.0 0.0 0.00 0.00 0.00 31 1009.7
20260830211538 93 252 0.0 0.0 0.00 0.00 0.00 31 1009.8